Weather History for KIKK - November, 2012

Change the Weather History Date:

Saturday, November 24, 2012

  Actual Average Record
Temperature  
Mean Temperature 30 °F -  
Max Temperature 32 °F 46 °F 64 °F (2006)
Min Temperature 27 °F 25 °F 10 °F (1991)
Degree Days  
Heating Degree Days 36    
Moisture  
Dew Point 20 °F    
Average Humidity 71    
Maximum Humidity 83    
Minimum Humidity 61    
Precipitation  
Precipitation 0.00 in - - ()
Sea Level Pressure  
Sea Level Pressure 30.18 in    
Wind  
Wind Speed 7 mph (WSW)    
Max Wind Speed 12 mph    
Max Gust Speed 16 mph    
Visibility 10 miles    
Events      
Averages and records for this station are not official NWS values.
T = Trace of Precipitation, MM = Missing Value Source: NWS Daily Summary

Daily Weather History Graph

Daily Weather History Graph

Search for Another Location

Airport or City:

Trip Planner

Search our weather history database for the weather conditions in past years. The results will help you decide how hot, cold, wet, or windy it might be!

Date:

Astronomy

Nov. 24, 2012 Rise Set
Actual Time 6:50 AM CST 4:26 PM CST
Civil Twilight 6:19 AM CST 4:56 PM CST
Nautical Twilight 5:46 AM CST 5:30 PM CST
Astronomical Twilight 5:13 AM CST 6:03 PM CST
Moon 2:12 PM CST (11/24) 3:05 AM CST (11/24)
Length of Visible Light 10h 36m
Length of Day
9h 36m
Waxing Gibbous, 87% of the Moon is Illuminated
Nov 24
Waxing Gibbous
Nov 28
Full
Dec 6
Last Quarter
Dec 13
New
Dec 19
First Quarter

Hourly Weather History & Observations

Time (CST) Temp. Windchill Dew Point Humidity Pressure Visibility Wind Dir Wind Speed Gust Speed Precip Events Conditions
12:15 AM 28.4 °F 21.2 °F 19.6 °F 70% 30.22 in 10.0 mi WNW 6.9 mph - N/A   Overcast
12:35 AM 28.4 °F 21.2 °F 19.6 °F 70% 30.22 in 10.0 mi NW 6.9 mph - N/A   Overcast
12:55 AM 28.4 °F 19.1 °F 19.2 °F 69% 30.22 in 10.0 mi WNW 10.4 mph 16.1 mph N/A   Overcast
1:15 AM 28.4 °F 21.2 °F 19.4 °F 69% 30.22 in 10.0 mi NW 6.9 mph - N/A   Overcast
1:35 AM 28.4 °F 20.4 °F 19.2 °F 69% 30.22 in 10.0 mi NW 8.1 mph - N/A   Overcast
1:55 AM 28.0 °F 19.3 °F 18.5 °F 67% 30.22 in 10.0 mi NW 9.2 mph - N/A   Overcast
2:15 AM 28.2 °F 22.0 °F 18.9 °F 68% 30.23 in 10.0 mi NW 5.8 mph - N/A   Overcast
2:35 AM 28.0 °F 20.0 °F 18.7 °F 68% 30.23 in 10.0 mi NW 8.1 mph 16.1 mph N/A   Overcast
2:55 AM 28.0 °F 18.6 °F 19.0 °F 69% 30.23 in 10.0 mi NW 10.4 mph - N/A   Overcast
3:15 AM 28.0 °F 19.3 °F 19.0 °F 69% 30.23 in 10.0 mi WNW 9.2 mph - N/A   Overcast
3:35 AM 28.0 °F 20.0 °F 19.2 °F 70% 30.23 in 10.0 mi WNW 8.1 mph - N/A   Overcast
3:55 AM 28.0 °F 20.8 °F 19.0 °F 69% 30.22 in 10.0 mi NW 6.9 mph - N/A   Overcast
4:15 AM 28.0 °F 18.6 °F 19.0 °F 69% 30.23 in 10.0 mi WNW 10.4 mph - N/A   Overcast
4:35 AM 27.9 °F 19.1 °F 18.9 °F 69% 30.23 in 10.0 mi WNW 9.2 mph - N/A   Overcast
4:55 AM 27.9 °F 21.5 °F 18.9 °F 69% 30.23 in 10.0 mi NW 5.8 mph - N/A   Overcast
5:15 AM 27.5 °F 21.1 °F 18.7 °F 69% 30.24 in 10.0 mi NW 5.8 mph - N/A   Overcast
5:35 AM 27.5 °F 18.0 °F 18.3 °F 68% 30.24 in 10.0 mi WNW 10.4 mph - N/A   Overcast
5:55 AM 27.3 °F 19.9 °F 18.3 °F 69% 30.25 in 10.0 mi NW 6.9 mph - N/A   Overcast
6:15 AM 27.3 °F 19.1 °F 18.3 °F 69% 30.25 in 10.0 mi WNW 8.1 mph - N/A   Overcast
6:35 AM 27.1 °F 19.7 °F 18.3 °F 69% 30.25 in 10.0 mi NW 6.9 mph - N/A   Overcast
6:55 AM 27.1 °F 18.9 °F 18.5 °F 70% 30.24 in 10.0 mi WNW 8.1 mph - N/A   Overcast
7:15 AM 27.1 °F 21.8 °F 18.5 °F 70% 30.25 in 10.0 mi NW 4.6 mph - N/A   Overcast
7:35 AM 27.3 °F 20.9 °F 18.7 °F 70% 30.25 in 10.0 mi WNW 5.8 mph - N/A   Overcast
7:55 AM 27.5 °F 23.6 °F 19.0 °F 71% 30.26 in 10.0 mi WNW 3.5 mph - N/A   Overcast
8:15 AM 27.5 °F 22.2 °F 19.2 °F 71% 30.26 in 10.0 mi WNW 4.6 mph - N/A   Overcast
8:35 AM 27.5 °F 21.1 °F 18.9 °F 70% 30.27 in 10.0 mi NW 5.8 mph - N/A   Overcast
8:55 AM 28.0 °F 21.7 °F 18.9 °F 68% 30.27 in 10.0 mi WNW 5.8 mph - N/A   Overcast
9:15 AM 28.4 °F 22.2 °F 19.0 °F 68% 30.27 in 10.0 mi WNW 5.8 mph - N/A   Overcast
9:35 AM 28.0 °F 21.7 °F 19.0 °F 69% 30.28 in 10.0 mi West 5.8 mph - N/A   Overcast
9:55 AM 28.0 °F - 18.9 °F 68% 30.28 in 10.0 mi Calm Calm - N/A   Overcast
10:15 AM 28.6 °F 22.4 °F 19.6 °F 69% 30.28 in 10.0 mi SW 5.8 mph - N/A   Overcast
10:35 AM 28.9 °F 25.2 °F 19.8 °F 69% 30.27 in 10.0 mi NW 3.5 mph - N/A   Overcast
10:55 AM 29.3 °F 24.3 °F 19.9 °F 68% 30.27 in 10.0 mi SSW 4.6 mph - N/A   Overcast
11:15 AM 29.5 °F 22.5 °F 19.9 °F 68% 30.27 in 10.0 mi WSW 6.9 mph - N/A   Overcast
11:35 AM 29.3 °F 24.3 °F 19.8 °F 68% 30.25 in 10.0 mi WNW 4.6 mph - N/A   Overcast
11:55 AM 29.8 °F - 19.8 °F 66% 30.24 in 10.0 mi Calm Calm - N/A   Overcast
12:15 PM 30.6 °F 23.1 °F 20.5 °F 66% 30.24 in 10.0 mi WSW 8.1 mph - N/A   Overcast
12:35 PM 31.3 °F 24.7 °F 20.1 °F 63% 30.23 in 10.0 mi WSW 6.9 mph - N/A   Overcast
12:55 PM 31.8 °F 24.6 °F 20.5 °F 63% 30.22 in 10.0 mi SW 8.1 mph - N/A   Mostly Cloudy
1:15 PM 32.0 °F 25.6 °F 20.1 °F 62% 30.21 in 10.0 mi SW 6.9 mph - N/A   Scattered Clouds
1:35 PM 31.8 °F - 20.1 °F 62% 30.20 in 10.0 mi Calm Calm - N/A   Clear
1:55 PM 32.0 °F 24.8 °F 20.1 °F 62% 30.19 in 10.0 mi West 8.1 mph - N/A   Clear
2:15 PM 32.4 °F 27.9 °F 20.3 °F 61% 30.18 in 10.0 mi SW 4.6 mph - N/A   Clear
2:35 PM 32.9 °F 25.9 °F 20.7 °F 61% 30.17 in 10.0 mi SSW 8.1 mph - N/A   Clear
2:55 PM 32.9 °F 27.5 °F 20.8 °F 61% 30.17 in 10.0 mi SSW 5.8 mph - N/A   Clear
3:15 PM 32.4 °F 26.0 °F 21.0 °F 63% 30.17 in 10.0 mi WSW 6.9 mph - N/A   Clear
3:35 PM 32.0 °F 25.6 °F 21.4 °F 65% 30.16 in 10.0 mi SW 6.9 mph - N/A   Clear
3:55 PM 31.6 °F 25.1 °F 21.0 °F 65% 30.15 in 10.0 mi SW 6.9 mph - N/A   Clear
4:15 PM 30.0 °F 23.2 °F 21.0 °F 69% 30.15 in 10.0 mi SW 6.9 mph - N/A   Clear
4:35 PM 29.3 °F 23.2 °F 20.8 °F 71% 30.16 in 10.0 mi SW 5.8 mph - N/A   Clear
4:55 PM 28.0 °F 22.8 °F 21.0 °F 75% 30.15 in 10.0 mi SSW 4.6 mph - N/A   Clear
5:15 PM 27.3 °F 23.4 °F 21.2 °F 78% 30.14 in 10.0 mi South 3.5 mph - N/A   Clear
5:35 PM 28.4 °F 24.6 °F 20.3 °F 72% 30.13 in 10.0 mi SSE 3.5 mph - N/A   Clear
5:55 PM 28.2 °F 23.1 °F 20.8 °F 74% 30.13 in 10.0 mi South 4.6 mph - N/A   Scattered Clouds
6:15 PM 27.9 °F 21.5 °F 21.0 °F 75% 30.12 in 10.0 mi SSE 5.8 mph - N/A   Mostly Cloudy
6:35 PM 27.9 °F 19.8 °F 21.2 °F 76% 30.12 in 10.0 mi South 8.1 mph - N/A   Scattered Clouds
6:55 PM 27.5 °F 19.3 °F 21.9 °F 80% 30.11 in 10.0 mi SSW 8.1 mph - N/A   Clear
7:15 PM 28.4 °F 20.4 °F 22.5 °F 78% 30.11 in 10.0 mi South 8.1 mph - N/A   Clear
7:35 PM 28.4 °F 19.1 °F 22.5 °F 78% 30.10 in 10.0 mi South 10.4 mph - N/A   Clear
7:55 PM 28.6 °F 19.9 °F 22.5 °F 78% 30.09 in 10.0 mi South 9.2 mph - N/A   Clear
8:15 PM 28.8 °F 19.0 °F 22.5 °F 77% 30.08 in 10.0 mi South 11.5 mph - N/A   Scattered Clouds
8:35 PM 28.9 °F 19.8 °F 22.5 °F 77% 30.07 in 10.0 mi South 10.4 mph - N/A   Overcast
8:55 PM 29.3 °F 20.8 °F 22.5 °F 76% 30.06 in 10.0 mi South 9.2 mph - N/A   Scattered Clouds
9:15 PM 29.3 °F 21.5 °F 22.5 °F 76% 30.05 in 10.0 mi South 8.1 mph - N/A   Mostly Cloudy
9:35 PM 28.9 °F 20.4 °F 22.6 °F 77% 30.05 in 10.0 mi South 9.2 mph - N/A   Scattered Clouds
9:55 PM 28.6 °F 18.7 °F 22.8 °F 79% 30.05 in 10.0 mi South 11.5 mph - N/A   Clear
10:15 PM 28.4 °F 19.1 °F 23.4 °F 81% 30.05 in 10.0 mi South 10.4 mph - N/A   Clear
10:35 PM 28.8 °F 20.2 °F 23.7 °F 81% 30.05 in 10.0 mi South 9.2 mph - N/A   Clear
10:55 PM 28.8 °F 20.2 °F 23.9 °F 82% 30.04 in 10.0 mi South 9.2 mph - N/A   Scattered Clouds
11:15 PM 28.9 °F 21.1 °F 23.9 °F 81% 30.04 in 10.0 mi South 8.1 mph - N/A   Mostly Cloudy
11:35 PM 28.9 °F 21.1 °F 24.3 °F 83% 30.04 in 10.0 mi South 8.1 mph - N/A   Mostly Cloudy
11:55 PM 29.1 °F 21.3 °F 24.4 °F 83% 30.02 in 10.0 mi South 8.1 mph - N/A   Scattered Clouds